This demonstration page uses our WeatherBlox Daily Observations layout. Learn more.

Left ArrowRight Arrow

41.55636, -103.73856

Hourly Observations for November 30, 2016

Temp ( °F °C ) Dew Point ( °F °C ) Humidity (%) Winds ( mph kmh ) Pressure ( in mb ) Visibility ( mi km ) Precip ( " mm )
12:53 am 00:53 Cloudy 30 -1.1 15 -9.4 54 54 WNW 18 30 29.93 1014 10 16 0.00 0.00
1:53 am 01:53 Cloudy 30 -1.1 15 -9.4 54 54 WNW 17 28 29.95 1014 10 16 0.00 0.00
2:53 am 02:53 Mostly Cloudy 27 -2.8 14 -10 58 58 WNW 12 19 29.96 1015 10 16 0.00 0.00
3:53 am 03:53 Mostly Cloudy 25 -3.9 14 -10 63 63 W 9 15 29.95 1014 10 16 0.00 0.00
4:53 am 04:53 Clear 26 -3.3 14 -10 60 60 W 14 22 29.93 1014 10 16 0.00 0.00
5:53 am 05:53 Mostly Cloudy 25 -3.9 14 -10 63 63 WNW 16 26 29.96 1014 10 16 0.00 0.00
6:53 am 06:53 Clear 25 -3.9 13 -10.6 60 60 W 13 20 29.96 1015 10 16 0.00 0.00
7:53 am 07:53 Sunny 24 -4.4 14 -10 65 65 W 16 26 29.98 1015 10 16 0.00 0.00
8:53 am 08:53 Sunny 30 -1.1 14 -10 51 51 WNW 16 26 29.97 1015 10 16 0.00 0.00
9:53 am 09:53 Sunny 34 1.1 13 -10.6 42 42 WNW 17 28 29.97 1015 10 16 0.00 0.00
10:53 am 10:53 Sunny 37 2.8 12 -11.1 36 36 WNW 24 39 29.95 1014 10 16 0.00 0.00
11:53 am 11:53 Sunny 39 3.9 11 -11.7 31 31 WNW 21 33 29.93 1014 10 16 0.00 0.00
12:53 pm 12:53 Sunny 40 4.4 9 -12.8 28 28 WNW 24 39 29.90 1013 10 16 0.00 0.00
1:53 pm 13:53 Sunny 40 4.4 8 -13.3 27 27 WNW 21 33 29.90 1012 10 16 0.00 0.00
2:53 pm 14:53 Sunny 40 4.4 7 -13.9 25 25 NW 23 37 29.92 1013 10 16 0.00 0.00
3:53 pm 15:53 Sunny 37 2.8 6 -14.4 27 27 NW 16 26 29.95 1014 10 16 0.00 0.00
4:53 pm 16:53 Clear 32 0 8 -13.3 36 36 NW 12 19 29.97 1015 10 16 0.00 0.00
5:53 pm 17:53 Clear 24 -4.4 7 -13.9 48 48 NNW 6 9 30.01 1016 10 16 0.00 0.00
6:53 pm 18:53 Clear 21 -6.1 8 -13.3 57 57 NNW 6 9 30.03 1017 10 16 0.00 0.00
7:53 pm 19:53 Clear 20 -6.7 9 -12.8 62 62 NW 5 7 30.04 1017 10 16 0.00 0.00
8:53 pm 20:53 Clear 21 -6.1 10 -12.2 62 62 WNW 6 9 30.02 1017 10 16 0.00 0.00
9:53 pm 21:53 Clear 19 -7.2 10 -12.2 68 68 W 7 11 30.02 1017 10 16 0.00 0.00
10:53 pm 22:53 Clear 17 -8.3 10 -12.2 74 74 WNW 6 9 30.03 1017 10 16 0.00 0.00
11:53 pm 23:53 Clear 17 -8.3 10 -12.2 74 74 NW 7 11 30.02 1017 10 16 0.00 0.00

Powered by AerisWeather